EHI
0 0 0 0 0 0 0 0 0 0 0 0 0 0 0 0 0 0 0 0 0 0 0 0 0 0 0 0 0 0 0 0 0 0 0 0 0 0 0 0 0 0 0
0 0 0 0 0 0 0 0 0 0 0 0 0 0 0 0 0 0 0 0 0 0 0 0 0 0 0 0 0 0 0 0 0 0 0 0 0 0 0 0 0 0 0
0 0 0 0 0 0 0 0 0 0 0 0 0 0 0 0 0 0 0 0 0 0 0 0 0 0 0 0 0 0 0 0 0 0 0 0 0 0 0 0 0 0 0
0 0 0 0 0 0 0 0 0 0 0 0 0 0 0 0 0 0 0 0 0 0 0 0 0 0 0 0 0 0 0 0 0 0 0 0 0 0 0 0 0 0 0
0 0 0 0 0 0 0 0 0 0 0 0 0 0 0 0 0 0 0 0 0 0 0 0 0 0 0 0 0 0 0 0 0 0 0 0 0 0 0 0 0 0 0
0 0 0 0 0 0 0 0 0 0 0 0 0 0 0 0 0 0 0 0 0 0 0 0 0 0 0 0 0 0 0 0 0 0 0 0 0 0 0 0 0 0 0
0 0 0 0 0 0 0 0 0 0 0 0 0 0 0 0 0 0 0 0 0 0 0 0 0 0 0 0 0 0 0 0 0 0 0 0 0 0 0 0 0 0 0
0 0 0 0 0 0 0 0 0 0 0 0 0 0 0 0 0 0 0 0 0 0 0 0 0 0 0 0 0 0 0 0 0 0 0 0 0 0 0 0 0 0 0
0 0 0 0 0 0 0 0 0 0 0 0 0 0 0 0 0 0 0 0 0 0 0 0 0 0 0 0 0 0 0 0 0 0 0 0 0 0 1 1 0 0 0
0 0 0 0 0 0 0 0 0 0 0 0 0 0 0 0 0 0 0 0 0 0 0 0 0 0 0 0 0 0 0 0 0 0 0 0 0 0 1 1 0 0 0
0 0 0 0 0 0 0 0 0 0 0 0 0 0 0 0 0 0 0 0 0 0 0 0 0 0 0 0 0 0 0 0 0 0 0 0 0 0 0 0 0 0 0
0 0 0 0 0 0 0 0 0 0 0 0 0 0 0 0 0 0 0 0 0 0 0 0 0 0 0 0 0 0 0 0 0 0 0 0 0 0 0 0 0 0 0
0 0 0 0 0 0 0 0 0 0 0 0 0 0 0 0 0 0 0 0 0 0 0 0 0 0 0 0 0 0 0 0 0 0 0 0 0 0 0 0 0 0 0
0 0 0 0 0 0 0 0 0 0 0 0 0 0 0 0 0 0 0 0 0 0 0 0 0 0 0 0 0 0 0 0 0 0 0 0 0 0 0 0 0 0 0
0 0 0 0 0 0 0 0 0 0 0 0 0 0 0 0 0 0 0 0 0 0 0 0 0 0 0 0 0 0 0 0 0 0 0 0 0 0 0 0 0 0 0
0 0 0 0 0 0 0 0 0 0 0 0 0 0 0 0 0 0 0 0 0 0 0 0 0 0 0 0 0 0 0 0 0 0 0 0 0 0 0 0 0 0 0
0 0 0 0 0 0 0 0 0 0 0 0 0 0 0 0 0 0 0 0 0 0 0 0 0 0 0 0 0 0 0 0 0 0 0 0 0 0 0 0 0 0 0
0 0 0 0 0 0 0 0 0 0 0 0 0 0 0 0 0 0 0 0 0 0 0 0 0 0 0 0 0 0 0 0 0 0 0 0 0 0 0 0 0 0 0
0 0 0 0 0 0 0 0 0 0 0 0 0 0 0 0 0 0 0 0 0 0 0 0 0 0 0 0 0 0 0 0 0 0 0 0 0 0 0 0 0 0 0
0 0 0 0 0 0 0 0 0 0 0 0 0 0 0 0 0 0 0 0 0 0 0 0 0 0 0 0 0 0 0 0 0 0 0 0 0 0 0 0 0 0 0
0 0 0 0 0 0 0 0 0 0 0 0 0 0 0 0 0 0 0 0 0 0 0 0 0 0 0 0 0 0 0 0 0 0 0 0 0 0 0 0 0 0 0
0 0 0 0 0 0 0 0 0 0 0 0 0 0 0 0 0 0 0 0 0 0 0 0 0 0 0 0 0 0 0 0 0 0 0 0 0 0 0 0 0 0 0
0 0 0 0 0 0 0 0 0 0 0 0 0 0 0 0 0 0 0 0 0 0 0 0 0 0 0 0 0 0 0 0 0 0 0 0 0 0 0 0 0 0 0
0 0 0 0 0 0 0 0 0 0 0 0 0 0 0 0 0 0 0 0 0 0 0 0 0 0 0 0 0 0 0 0 0 0 0 0 0 0 0 0 0 0 0
0 0 0 0 0 0 0 0 0 0 0 0 0 0 0 0 0 0 0 0 0 0 0 0 0 0 0 0 0 0 0 0 0 0 0 0 0 0 0 0 0 0 0
0 0 0 0 0 0 0 0 0 0 0 0 0 0 0 0 0 0 0 0 0 0 0 0 0 0 0 0 0 0 0 0 0 0 0 0 0 0 0 0 0 0 0
Wind_Speed
1 1 1 1 0 1 2 1 2 2 3 3 3 3 3 3 2 2 2 4 5 7 8 8 8 8 8 7 7 8 8 7 7 6 6 6 6 6 6 5 5 5 4
1 1 1 1 0 0 1 2 2 2 2 2 3 3 3 2 2 2 2 2 4 6 7 7 7 7 7 7 7 7 7 6 6 5 5 5 5 5 5 4 4 4 3
1 1 0 0 0 0 1 2 2 2 2 2 2 2 2 2 2 2 2 2 2 4 6 7 7 7 7 6 6 6 6 6 5 4 4 4 4 4 4 4 4 3 3
1 1 0 0 0 0 1 2 2 3 2 2 1 1 1 2 2 2 2 2 2 2 3 6 6 6 5 6 6 6 6 5 4 4 4 4 3 3 3 3 3 2 2
1 1 0 0 0 0 1 2 2 3 3 2 2 1 1 1 2 3 3 3 3 2 2 4 5 5 5 5 5 5 4 4 3 2 3 3 2 2 2 2 1 1 1
0 1 0 0 1 1 1 1 2 2 3 3 3 2 1 1 1 2 3 3 3 3 3 3 2 2 4 4 4 3 3 3 2 2 2 2 2 2 2 2 1 1 1
0 1 0 1 1 1 1 2 2 3 2 3 3 2 2 2 2 1 2 2 2 2 3 3 2 1 1 2 2 2 2 2 1 1 1 2 3 2 2 3 2 2 2
1 1 1 1 1 2 2 2 2 2 2 2 4 4 2 1 1 1 1 2 2 2 2 3 2 2 1 1 1 1 1 1 1 1 1 1 1 2 2 2 3 3 2
1 1 1 2 2 2 3 2 3 3 3 2 2 3 4 3 1 0 1 1 2 2 2 2 2 1 1 1 0 0 1 0 1 1 1 1 1 1 1 2 2 2 2
2 2 2 2 2 2 3 3 2 3 4 4 2 0 1 3 3 2 1 1 2 2 2 2 2 1 1 1 0 1 1 1 1 1 2 1 1 1 1 2 2 2 2
2 2 2 2 3 3 4 4 3 3 3 4 3 2 1 1 1 3 3 2 1 2 2 2 2 2 1 1 1 1 1 1 1 1 1 1 1 1 1 2 2 2 3
2 3 3 3 3 3 4 4 4 5 4 3 2 3 3 3 3 3 3 4 3 2 2 2 2 2 1 1 1 1 1 1 1 1 2 2 2 2 2 2 3 3 3
3 3 3 3 4 4 4 4 4 5 4 4 4 3 2 2 2 2 3 3 1 1 1 1 2 2 1 1 1 1 1 1 1 2 2 2 2 2 3 3 3 3 4
4 4 4 4 4 4 4 4 3 4 4 4 4 4 3 2 2 3 3 4 2 1 1 2 1 2 2 2 2 2 2 2 2 2 2 2 2 2 3 3 4 4 4
3 4 4 4 5 5 5 5 4 5 5 4 4 4 3 2 2 2 2 4 4 3 3 2 2 2 2 2 2 2 3 3 2 2 2 2 2 2 2 3 3 3 4
4 5 5 5 5 5 5 5 5 5 5 4 3 4 3 2 3 2 2 2 2 3 3 2 2 2 2 2 2 2 2 3 3 3 3 2 2 2 2 3 3 3 3
5 6 5 5 5 5 5 5 5 6 6 5 4 5 4 3 3 3 2 2 2 2 3 2 1 1 2 3 2 2 2 2 3 4 4 4 3 3 3 4 4 4 4
5 5 5 5 5 5 6 6 7 7 7 7 6 6 5 4 4 4 3 3 3 2 3 3 2 2 3 3 3 2 2 1 2 4 5 4 5 4 4 4 4 5 5
4 4 5 5 5 5 6 7 7 7 7 7 7 7 6 6 5 4 4 4 3 3 2 3 3 2 2 2 2 2 2 2 2 3 4 4 5 5 5 5 5 5 5
5 5 5 5 5 5 6 7 7 7 7 7 6 6 6 7 7 6 5 5 3 3 3 3 2 2 2 2 2 2 2 2 2 2 3 3 5 5 5 6 6 6 6
4 4 4 4 4 4 6 7 7 7 7 6 5 5 6 6 7 6 5 5 5 3 3 3 3 2 2 2 3 2 2 2 3 2 2 2 3 3 4 5 6 6 6
3 3 4 4 4 4 7 9 7 7 7 6 6 5 5 6 7 7 7 7 6 5 5 4 4 5 5 4 3 3 2 2 3 2 2 3 2 3 3 3 5 6 6
2 2 3 4 4 5 7 8 9 6 6 6 6 5 4 5 6 5 6 6 6 7 7 5 5 6 6 5 5 4 4 4 4 3 2 3 2 4 3 4 6 6 6
2 2 2 3 3 4 7 7 8 5 4 5 5 6 6 5 5 5 5 5 4 5 5 5 5 5 4 4 5 5 4 2 2 2 2 3 3 3 3 3 6 6 6
2 1 2 2 2 3 5 7 7 4 3 4 5 5 6 5 7 7 6 5 4 4 4 5 5 5 6 6 4 3 3 3 3 3 2 2 2 2 2 3 4 5 5
2 2 2 1 1 2 3 5 6 3 3 4 4 4 7 7 8 8 6 6 6 4 3 2 2 3 3 4 5 4 4 4 2 3 2 2 1 1 2 2 2 2 3
Wind_Direction
13 8 41 34 48 97 116 115 105 98 92 90 90 94 93 87 84 83 81 96 113 124 126 129 129 126 122 121 124 123 113 108 106 105 101 104 100 98 94 97 93 90 93
40 6 33 33 20 124 140 142 135 127 116 105 94 92 96 97 89 93 92 95 102 112 123 127 131 129 125 121 117 123 123 120 111 109 108 103 101 96 91 91 94 86 86
77 16 6 47 334 165 136 130 123 113 113 105 98 95 105 102 110 109 105 95 97 102 112 120 121 127 128 124 123 121 121 120 117 117 119 118 109 102 93 87 89 84 76
94 71 329 230 318 156 141 143 143 123 122 115 112 103 110 112 119 122 113 102 91 91 105 106 109 115 125 126 123 120 116 115 123 130 132 131 127 121 107 100 86 83 73
92 104 342 271 182 107 126 145 146 144 141 131 131 121 111 115 129 126 119 112 102 93 93 101 101 101 105 114 120 117 115 112 117 135 145 143 142 150 149 131 121 77 95
112 108 1 273 166 121 102 133 143 140 147 148 130 97 94 112 125 133 136 122 113 109 103 97 100 101 97 101 103 114 115 121 125 136 164 175 177 185 195 195 189 223 241
170 150 220 241 161 145 155 147 145 140 146 144 118 97 56 71 111 132 132 124 116 119 112 105 94 95 110 110 100 101 121 143 136 116 133 194 207 215 221 217 211 229 248
221 192 185 216 189 160 156 146 142 152 160 153 142 145 135 115 39 101 131 136 137 124 116 115 112 109 104 105 67 79 88 178 197 175 128 134 184 225 228 234 231 239 244
214 216 214 206 203 181 176 173 168 153 166 179 163 159 160 182 168 314 157 147 150 142 142 137 129 128 127 116 161 333 358 308 231 238 230 219 194 266 264 255 247 263 269
213 214 218 206 204 199 185 183 177 172 168 177 184 170 152 147 160 171 217 190 175 167 166 162 157 170 161 157 174 358 329 299 257 248 244 244 295 340 335 309 268 271 278
218 203 205 207 204 199 187 184 184 180 176 178 182 172 145 146 144 158 185 190 205 208 192 185 179 192 196 181 197 222 198 242 242 256 295 300 301 303 322 336 321 299 297
232 213 205 216 211 201 192 189 194 190 187 182 185 178 172 174 173 163 175 185 203 225 209 197 186 190 195 191 210 216 193 218 252 258 271 296 307 314 317 319 327 321 304
232 222 211 219 215 206 198 191 197 197 193 190 191 198 194 196 174 166 162 175 197 255 228 216 201 188 192 191 202 207 222 222 258 261 265 277 303 323 319 309 313 318 317
223 219 216 222 212 203 199 193 201 202 195 195 198 203 199 202 180 171 167 162 171 247 243 233 216 200 204 204 213 206 219 231 244 253 264 280 297 310 313 311 309 311 313
227 214 219 226 214 202 196 193 203 205 195 195 197 200 201 203 194 184 172 170 169 190 222 221 213 211 206 202 209 204 215 230 237 249 259 271 271 282 292 294 296 305 308
226 213 220 222 215 203 196 196 205 203 197 200 196 192 202 204 192 181 180 185 179 180 210 221 219 222 206 224 227 214 232 248 240 240 249 251 248 258 275 282 289 296 301
221 215 212 212 211 204 198 201 208 196 199 202 201 195 202 205 198 190 184 186 191 181 212 253 250 227 212 216 230 229 230 229 231 243 249 250 253 257 265 274 278 286 290
220 212 209 207 208 207 203 204 207 201 201 203 200 199 202 202 208 194 187 196 203 195 191 227 252 229 234 218 217 226 244 255 236 250 251 254 259 262 263 266 273 280 284
223 218 210 209 207 207 211 210 207 204 205 206 202 202 203 200 209 198 194 200 206 207 193 202 231 236 243 218 212 241 243 255 263 255 246 253 265 265 263 266 268 271 276
221 224 214 215 212 212 215 214 213 208 206 209 209 206 207 208 209 202 203 204 199 197 189 197 218 227 232 217 199 217 250 259 265 264 248 261 268 267 268 270 269 269 271
227 224 210 219 219 218 217 212 212 210 206 208 211 211 214 218 218 209 208 200 193 197 197 200 209 221 225 205 216 214 245 270 278 247 239 250 253 247 248 259 261 265 271
226 217 212 217 222 229 229 225 219 206 207 203 206 211 215 223 219 221 226 221 207 199 202 206 211 216 222 216 214 217 222 242 262 234 232 254 234 244 247 238 260 269 272
246 232 221 213 224 237 237 230 228 212 200 199 201 205 216 221 214 204 218 227 229 234 228 217 213 219 220 213 206 214 222 231 247 240 234 257 237 247 252 258 261 263 268
267 247 237 218 223 248 247 236 228 215 203 202 203 204 210 209 211 206 203 209 223 230 235 231 226 230 230 215 209 218 224 239 276 259 219 245 244 248 266 251 255 257 261
299 276 258 228 224 262 258 237 228 207 207 210 211 212 211 207 213 214 205 206 220 237 249 244 243 243 245 244 231 196 197 217 255 255 224 225 238 266 264 249 250 253 261
300 303 315 307 258 264 264 244 230 209 212 218 211 209 219 216 213 215 206 201 214 224 221 231 241 251 245 238 235 224 207 214 234 243 206 200 233 255 272 252 239 248 254